• En España
  • Lista de países
  • Para 7 días
  • Temperatura del agua
  • Mapa Satelital
  • El tiempo en el mapa
  • Informadores
  • user-avatar
    Iniciar sesión

    Tiempo cada hora Río Gallegos

    Hoy, 16 Octubre, Martes

    Tiempo Temperatura Precipitaciones Viento Presión Humedad
    00:00 +4°C° 0 mm 2 mps 740 mmHg 59%
    01:00 +4°C° 0 mm 2 mps 740 mmHg 61%
    02:00 +4°C° 0 mm 2 mps 740 mmHg 60%
    03:00 +4°C° 0 mm 2 mps 741 mmHg 59%
    04:00 +4°C° 0 mm 2 mps 741 mmHg 58%
    05:00 +4°C° 0 mm 3 mps 741 mmHg 56%
    06:00 +4°C° 0 mm 3 mps 742 mmHg 55%
    07:00 +5°C° 0 mm 4 mps 743 mmHg 53%
    08:00 +6°C° 0 mm 4 mps 743 mmHg 50%
    09:00 +7°C° 0 mm 4 mps 743 mmHg 48%
    10:00 +8°C° 0 mm 4 mps 744 mmHg 45%
    11:00 +10°C° 0 mm 4 mps 744 mmHg 43%
    12:00 +10°C° 0 mm 5 mps 745 mmHg 42%
    13:00 +10°C° 0 mm 5 mps 745 mmHg 41%
    14:00 +10°C° 0 mm 5 mps 746 mmHg 42%
    15:00 +10°C° 0 mm 6 mps 747 mmHg 44%
    16:00 +10°C° 0 mm 7 mps 748 mmHg 45%
    17:00 +9°C° 0 mm 7 mps 749 mmHg 53%
    18:00 +8°C° 0 mm 7 mps 750 mmHg 60%
    19:00 +5°C° 0 mm 6 mps 751 mmHg 67%
    20:00 +5°C° 0 mm 7 mps 752 mmHg 69%
    21:00 +4°C° 0 mm 7 mps 754 mmHg 71%
    22:00 +2°C° 0 mm 8 mps 755 mmHg 73%
    23:00 +2°C° 0 mm 8 mps 756 mmHg 72%

    Mañana, 17 Octubre, Miércoles

    Tiempo Temperatura Precipitaciones Viento Presión Humedad
    00:00 +1°C° 0 mm 9 mps 757 mmHg 72%
    01:00 0°C° 0 mm 9 mps 758 mmHg 71%
    02:00 0°C° 0 mm 9 mps 759 mmHg 70%
    03:00 -2°C° 0 mm 10 mps 760 mmHg 68%
    04:00 -2°C° 0 mm 10 mps 762 mmHg 67%
    05:00 -2°C° 0 mm 10 mps 763 mmHg 65%
    06:00 0°C° 0 mm 10 mps 764 mmHg 63%
    07:00 +1°C° 0 mm 11 mps 765 mmHg 61%
    08:00 +1°C° 0 mm 10 mps 766 mmHg 58%
    09:00 +2°C° 0 mm 10 mps 767 mmHg 56%
    10:00 +3°C° 0 mm 10 mps 767 mmHg 54%
    11:00 +3°C° 0 mm 9 mps 768 mmHg 52%
    12:00 +5°C° 0 mm 9 mps 768 mmHg 50%
    13:00 +5°C° 0 mm 8 mps 769 mmHg 48%
    14:00 +5°C° 0 mm 8 mps 769 mmHg 49%
    15:00 +5°C° 0 mm 7 mps 770 mmHg 49%
    16:00 +5°C° 0 mm 7 mps 770 mmHg 50%
    17:00 +4°C° 0 mm 6 mps 771 mmHg 54%
    18:00 +3°C° 0 mm 5 mps 772 mmHg 59%
    19:00 +3°C° 0 mm 4 mps 773 mmHg 63%
    20:00 +3°C° 0 mm 4 mps 774 mmHg 66%
    21:00 +2°C° 0 mm 3 mps 774 mmHg 68%
    22:00 +3°C° 0 mm 2 mps 775 mmHg 71%
    23:00 +2°C° 0 mm 2 mps 775 mmHg 73%

    Pasado mañana, 18 Octubre, Jueves

    Tiempo Temperatura Precipitaciones Viento Presión Humedad
    00:00 +3°C° 0 mm 1 mps 775 mmHg 75%
    01:00 +3°C° 0 mm 1 mps 775 mmHg 78%
    02:00 +2°C° 0 mm 1 mps 776 mmHg 78%
    03:00 +2°C° 0 mm 1 mps 776 mmHg 78%
    04:00 +2°C° 0 mm 1 mps 776 mmHg 77%
    05:00 +3°C° 0 mm 1 mps 776 mmHg 73%
    06:00 +3°C° 0 mm 2 mps 777 mmHg 68%
    07:00 +4°C° 0 mm 2 mps 777 mmHg 63%
    08:00 +5°C° 0 mm 2 mps 777 mmHg 59%
    09:00 +6°C° 0 mm 2 mps 777 mmHg 55%
    10:00 +7°C° 0 mm 3 mps 776 mmHg 50%
    11:00 +8°C° 0 mm 3 mps 776 mmHg 47%
    12:00 +9°C° 0 mm 3 mps 776 mmHg 44%
    13:00 +10°C° 0 mm 3 mps 775 mmHg 41%
    14:00 +10°C° 0 mm 4 mps 775 mmHg 41%
    15:00 +10°C° 0 mm 4 mps 774 mmHg 41%
    16:00 +11°C° 0 mm 4 mps 774 mmHg 41%
    17:00 +8°C° 0 mm 4 mps 774 mmHg 47%
    18:00 +7°C° 0 mm 5 mps 774 mmHg 53%
    19:00 +6°C° 0 mm 5 mps 774 mmHg 58%
    20:00 +6°C° 0 mm 5 mps 774 mmHg 61%
    21:00 +5°C° 0 mm 5 mps 774 mmHg 63%
    22:00 +5°C° 0 mm 4 mps 774 mmHg 65%
    23:00 +5°C° 0 mm 4 mps 774 mmHg 63%

    19 Octubre, Viernes

    Tiempo Temperatura Precipitaciones Viento Presión Humedad
    00:00 +5°C° 0 mm 4 mps 773 mmHg 61%
    01:00 +4°C° 0 mm 4 mps 773 mmHg 60%
    02:00 +4°C° 0 mm 3 mps 773 mmHg 58%
    03:00 +4°C° 0 mm 3 mps 772 mmHg 57%
    04:00 +4°C° 0 mm 3 mps 772 mmHg 56%
    05:00 +5°C° 0 mm 3 mps 772 mmHg 53%
    06:00 +7°C° 0 mm 3 mps 772 mmHg 49%
    07:00 +8°C° 0 mm 3 mps 771 mmHg 46%
    08:00 +10°C° 0 mm 3 mps 771 mmHg 43%
    09:00 +11°C° 0 mm 4 mps 770 mmHg 40%
    10:00 +12°C° 0 mm 4 mps 770 mmHg 37%
    11:00 +13°C° 0 mm 5 mps 769 mmHg 37%
    12:00 +14°C° 0 mm 5 mps 769 mmHg 37%
    13:00 +14°C° 0 mm 6 mps 768 mmHg 37%
    14:00 +14°C° 0 mm 6 mps 767 mmHg 39%
    15:00 +14°C° 0 mm 6 mps 766 mmHg 41%
    16:00 +12°C° 0 mm 7 mps 766 mmHg 44%
    17:00 +11°C° 0 mm 7 mps 765 mmHg 49%
    18:00 +9°C° 0 mm 6 mps 765 mmHg 54%
    19:00 +8°C° 0 mm 6 mps 765 mmHg 59%
    20:00 +8°C° 0 mm 6 mps 764 mmHg 61%
    21:00 +7°C° 0 mm 6 mps 764 mmHg 63%
    22:00 +7°C° 0 mm 6 mps 763 mmHg 66%
    23:00 +7°C° 0 mm 6 mps 762 mmHg 67%

    20 Octubre, Sábado

    Tiempo Temperatura Precipitaciones Viento Presión Humedad
    00:00 +7°C° 0 mm 6 mps 762 mmHg 68%
    01:00 +7°C° 0 mm 6 mps 761 mmHg 69%
    02:00 +7°C° 0 mm 6 mps 760 mmHg 69%
    03:00 +7°C° 0 mm 6 mps 760 mmHg 70%
    04:00 +7°C° 0 mm 6 mps 759 mmHg 70%
    05:00 +8°C° 0 mm 6 mps 758 mmHg 66%
    06:00 +9°C° 0 mm 7 mps 758 mmHg 62%
    07:00 +10°C° 0 mm 8 mps 757 mmHg 59%
    08:00 +11°C° 0 mm 8 mps 756 mmHg 57%
    09:00 +12°C° 0 mm 8 mps 756 mmHg 55%
    10:00 +13°C° 0 mm 8 mps 755 mmHg 54%
    11:00 +15°C° 0 mm 8 mps 754 mmHg 54%
    12:00 +15°C° 0 mm 8 mps 753 mmHg 53%
    13:00 +16°C° 0 mm 8 mps 752 mmHg 53%
    14:00 +16°C° 0 mm 8 mps 751 mmHg 54%
    15:00 +15°C° 0 mm 7 mps 750 mmHg 55%
    16:00 +15°C° 0 mm 6 mps 749 mmHg 56%
    17:00 +14°C° 0 mm 6 mps 749 mmHg 61%
    18:00 +13°C° 0 mm 5 mps 748 mmHg 65%
    19:00 +12°C° 0 mm 4 mps 748 mmHg 70%
    20:00 +12°C° 0 mm 5 mps 748 mmHg 66%
    21:00 +11°C° 0 mm 6 mps 747 mmHg 62%
    22:00 +10°C° 0 mm 7 mps 747 mmHg 58%
    23:00 +10°C° 0.4 mm 8 mps 746 mmHg 58%

    21 Octubre, Domingo

    Tiempo Temperatura Precipitaciones Viento Presión Humedad
    00:00 +8°C° 0.4 mm 9 mps 746 mmHg 59%
    01:00 +7°C° 0.4 mm 11 mps 745 mmHg 59%
    02:00 +5°C° 0.4 mm 12 mps 745 mmHg 59%
    03:00 +4°C° 0.4 mm 13 mps 746 mmHg 60%
    04:00 +4°C° 0.4 mm 15 mps 746 mmHg 60%
    05:00 +4°C° 0 mm 15 mps 746 mmHg 61%
    06:00 +4°C° 0 mm 15 mps 747 mmHg 62%
    07:00 +4°C° 0 mm 15 mps 747 mmHg 63%
    08:00 +4°C° 0 mm 15 mps 748 mmHg 57%
    09:00 +2°C° 0 mm 16 mps 748 mmHg 52%
    10:00 +2°C° 0 mm 16 mps 749 mmHg 46%
    11:00 +2°C° 0 mm 16 mps 749 mmHg 45%
    12:00 +2°C° 0 mm 16 mps 750 mmHg 43%
    13:00 +2°C° 0 mm 15 mps 751 mmHg 41%
    14:00 +2°C° 0 mm 15 mps 751 mmHg 43%
    15:00 +1°C° 0 mm 14 mps 752 mmHg 44%
    16:00 +1°C° 0 mm 14 mps 753 mmHg 45%
    17:00 0°C° 0 mm 14 mps 754 mmHg 48%
    18:00 0°C° 0 mm 13 mps 755 mmHg 52%
    19:00 -1°C° 0 mm 13 mps 756 mmHg 55%
    20:00 -1°C° 0 mm 12 mps 756 mmHg 57%
    21:00 -1°C° 0 mm 12 mps 757 mmHg 60%
    22:00 -1°C° 0 mm 12 mps 758 mmHg 62%
    23:00 -1°C° 0 mm 12 mps 759 mmHg 63%
    Mostrar más